Location: Baillet
(49.0619°N, 2.2988°E)
Time: 15:50:22
(UTC+00:00)

Daily predictions for brighter satellites

Satellite Brightness Start Highest point End
(mag) Time Altitude Azimuth Time Altitude Azimuth Time Altitude Azimuth
Cosmos 1814 Rocket 4.1 18:23:37 10° NNW 18:29:02 79° ENE 18:34:22 10° SSE
DMSP B5D2-2 4.5 18:24:16 10° NNE 18:29:18 42° E 18:34:18 10° SSE
COSMOS 2455 4.0 18:25:26 10° NNW 18:30:37 28° NE 18:35:47 10° E
IRS-1C Rocket 4.1 18:26:02 10° SSE 18:31:15 68° ENE 18:36:29 10° N
SKYMED 2 4.3 18:27:36 10° N 18:31:53 60° WNW 18:36:09 10° SSW
Cosmos 1745 Rocket 4.3 18:26:40 10° SSW 18:33:01 80° W 18:39:21 10° N
SeaSat 1 2.6 18:28:23 10° SE 18:33:14 60° NE 18:38:07 10° NNW
Cosmos 2344 4.0 18:26:45 10° SW 18:34:07 67° NW 18:42:14 10° NE
Okean O Rocket 3.3 18:30:54 10° SSW 18:35:01 38° W 18:39:08 10° NNW
ARGOS 3.6 18:29:52 10° S 18:35:12 69° WSW 18:40:34 10° NNW
Cosmos 1707 4.0 18:37:15 10° NNE 18:40:24 23° ENE 18:43:32 10° ESE
ERBS 3.5 18:37:54 10° S 18:40:31 22° SE 18:43:09 10° ENE
Cosmos 1743 2.7 18:38:03 10° S 18:41:54 88° WNW 18:45:47 10° N
Cosmos 1975 3.7 18:40:03 10° SSE 18:43:28 28° E 18:46:54 10° NNE
CSL-04 Debris 4.2 18:38:42 10° SSE 18:44:01 61° ENE 18:49:21 10° N
OBJECT-B 1.8 18:42:26 10° SE 18:45:13 27° ENE 18:48:00 10° N
Cosmos 1943 Rocket 3.7 18:42:45 10° SE 18:45:19 13° E 18:47:54 10° ENE
Cosmos 968 Rocket 4.0 18:40:47 10° SSE 18:45:31 36° ESE 18:50:18 10° NE
USA 215 3.9 18:40:07 10° SE 18:46:31 54° SW 18:52:57 10° WNW
Cosmos 1536 3.9 18:43:18 10° SSW 18:47:14 50° WNW 18:51:11 10° N
USA 305 2.8 18:43:25 10° SW 18:47:38 75° SSE 18:51:51 10° ENE
Lacrosse 5 rocket 3.0 18:43:52 10° WNW 18:47:57 30° N 18:51:57 10° ENE
Geosat 4.3 18:44:35 10° NNE 18:49:38 76° WNW 18:54:38 10° SW
ISS -1.7 18:50:27 10° SSE 18:51:48 12° SE 18:52:24 12° SE
CZ-2C R/B 3.2 18:46:47 10° N 18:52:11 66° WNW 18:57:39 10° SSW
Cosmos 921 Rocket 3.0 18:48:17 10° NNW 18:52:40 68° ENE 18:56:56 10° SSE
Cosmos 1461 4.3 18:51:46 10° NNW 18:55:06 23° NE 18:57:53 12° E
SL-4 R/B 3.0 18:53:44 10° W 18:56:51 32° SSW 19:00:04 10° SSE
USA 307 2.8 18:54:05 10° SW 18:58:19 80° SSE 19:02:33 10° ENE
Meteor 2-9 Rocket 4.3 18:57:44 10° S 19:03:29 64° E 19:09:18 10° NNE
Cosmos 1842 3.2 18:59:43 10° N 19:03:42 84° E 19:07:38 10° S
USA 281 4.2 18:59:46 10° NE 19:04:47 23° E 19:09:46 10° SSE
Cosmos 1689 Rocket 4.2 19:06:18 10° NE 19:06:35 11° ENE 19:06:35 11° ENE
SJ-6B 3.2 19:04:34 10° SE 19:08:32 48° ENE 19:12:31 10° N
Cosmos 1400 Rocket 4.0 19:07:16 12° SE 19:10:03 23° E 19:13:19 10° NE
Cosmos 2221 Rocket 3.7 19:06:41 10° NNW 19:11:10 80° W 19:15:34 10° S
Cosmos 1378 Rocket 3.6 19:08:01 10° N 19:12:21 57° ENE 19:16:41 10° SSE
ATLAS CENTAUR R/B 3.0 19:10:29 10° NNW 19:14:23 27° NE 19:17:09 16° E
USA 306 2.9 19:10:50 10° WSW 19:15:03 81° NNW 19:19:11 11° ENE
YAOGAN 1 4.2 19:12:05 10° SSW 19:16:04 36° W 19:20:05 10° NNW
Cosmos 1674 3.8 19:13:54 10° NNE 19:17:00 25° ENE 19:18:00 22° E
USA 308 2.9 19:13:01 10° WSW 19:17:16 83° NNW 19:21:18 11° ENE
COSMOS 2406 4.1 19:16:46 10° NW 19:22:20 50° WSW 19:27:50 10° S
Inspiration4 3.5 19:20:01 10° SSW 19:23:49 31° SE 19:25:24 24° ESE
Okean-O 3.7 19:20:46 10° S 19:25:02 47° W 19:29:21 10° NNW
Cosmos 1833 Rocket 4.0 19:20:42 10° NW 19:25:54 39° WSW 19:31:04 10° S
Cosmos 1674 Rocket 3.5 19:22:11 10° N 19:26:36 88° ENE 19:30:56 10° S
Meteor 2-12 Rocket 4.4 19:22:33 10° S 19:28:39 74° E 19:34:45 10° NNE
Meteor 1-21 4.3 19:23:19 10° NNW 19:29:03 85° W 19:34:42 10° S
CZ-4B R/B 2.1 19:26:07 10° N 19:29:03 50° WNW 19:32:00 10° SSW
In-Cosmos 22 4.0 19:24:16 10° N 19:29:35 69° ENE 19:34:24 12° SSE
USA 186 1.7 19:30:09 17° S 19:32:02 65° W 19:34:53 10° NNW
Cosmos 2074 Rocket 3.9 19:26:02 10° S 19:32:14 71° E 19:38:30 10° NNE
Lacrosse 4 Rocket 1.9 19:30:59 10° SW 19:34:58 59° NW 19:39:00 10° NNE
Cosmos 2082 Rocket 2.6 19:31:28 10° NNW 19:37:09 64° WSW 19:42:44 10° SSE
Cosmos 1932 4.4 19:31:02 10° SSW 19:37:15 70° SE 19:43:28 10° NE
SPOT 3 Rocket 4.4 19:36:01 25° E 19:37:51 31° ENE 19:42:22 10° N
CSL-04 Rocket 4.4 19:35:47 10° S 19:40:58 53° W 19:46:15 10° NNW
Resurs 01 Rocket 2.2 19:40:22 30° ESE 19:41:41 38° ENE 19:45:46 10° N
Okean 2 3.6 19:38:12 10° NNW 19:42:16 68° W 19:46:19 10° S
Cosmos 1340 3.3 19:45:17 10° NNW 19:48:59 54° W 19:52:08 14° S
CZ-4 R/B 4.3 19:48:46 10° WSW 19:50:48 14° W 19:52:49 10° WNW
CSL-04 DEB 4.2 19:46:54 10° NNE 19:50:55 72° ESE 19:54:51 10° S
Helios 1A Rocket 2.8 19:49:40 26° SSE 19:51:56 90° NNE 19:56:04 10° NNW
Cosmos 1782 Rocket 3.9 19:52:43 39° ESE 19:53:26 43° E 19:57:39 10° NNE
Cosmos 1733 Rocket 4.3 19:49:20 10° SW 19:53:27 42° WNW 19:57:34 10° N
ARIANE 5 R/B 4.5 19:54:54 16° NE 19:54:54 16° NE 19:57:20 10° NNE
Ariane Rocket 2.9 19:53:08 28° SSE 19:55:48 72° ENE 20:00:53 10° N
Terra 3.8 19:56:16 13° NE 19:56:19 13° NE 19:58:35 10° NNE
ERS-1 Rocket 4.5 19:59:20 20° ENE 19:59:40 20° ENE 20:03:15 10° NNE
Cosmos 2278 Rocket 3.4 19:55:02 10° SW 20:00:27 45° NW 20:05:55 10° NNE
IRS-1A Rocket 4.3 19:57:02 22° SSE 20:00:55 86° ENE 20:06:50 10° NNW
Cosmos 2297 3.7 19:57:41 10° S 20:03:14 59° ESE 20:08:52 10° NE
Cosmos 1626 2.3 20:04:04 10° N 20:07:24 54° NE 20:07:24 54° NE
Cosmos 1346 Rocket 2.7 20:04:20 10° N 20:08:20 62° ENE 20:08:28 61° E
Resurs 1-3 3.8 20:06:23 29° S 20:08:33 71° WSW 20:12:58 10° NNW
Cosmos 2369 Rocket 3.6 20:12:19 21° ENE 20:12:19 21° ENE 20:14:32 10° NE
Cosmos 2184 Rocket 4.4 20:03:58 10° SSW 20:10:17 68° WNW 20:16:37 10° N
SeaSat 1 4.5 20:07:06 10° SSW 20:11:04 24° WSW 20:15:03 10° NW
MOS 1 4.4 20:08:02 22° S 20:11:47 77° WSW 20:17:30 10° NNW
Cosmos 1503 Rocket 3.8 20:08:28 10° SSW 20:13:41 77° ESE 20:18:53 10° NNE
Cosmos 1707 4.4 20:12:46 10° NNW 20:16:18 33° W 20:19:15 13° SSW
ERBS 2.8 20:13:04 10° WSW 20:16:19 55° NNW 20:16:21 55° NNW
SPOT 1/Viking Rocket 3.7 20:15:41 48° ESE 20:16:35 55° ENE 20:21:38 10° N
COSMOS 2455 2.8 20:11:10 10° NW 20:17:15 82° WSW 20:19:34 40° SSE
Landsat 7 3.7 20:16:04 51° SSE 20:17:16 80° ENE 20:22:03 10° NNW
OBJECT-B 3.4 20:14:57 10° SW 20:17:19 19° W 20:19:43 10° NW
Cosmos 962 Rocket 4.4 20:16:03 31° SSE 20:19:03 63° E 20:25:10 10° NNE
IGS 5A 3.4 20:19:04 60° S 20:19:47 81° WSW 20:23:58 10° NNW
Cosmos 1975 Rocket 2.9 20:17:12 10° N 20:21:37 83° E 20:22:05 70° SSE
Cosmos 1238 Rocket 4.3 20:16:16 10° SSW 20:22:48 67° WNW 20:28:55 10° N
Cosmos 1354 Rocket 3.8 20:20:02 10° SSW 20:25:18 81° ESE 20:30:34 10° NNE
USA 305 3.7 20:23:40 10° W 20:27:45 46° N 20:28:50 37° NNE
Lacrosse 5 rocket 1.8 20:23:21 10° NW 20:27:52 55° NNE 20:28:07 54° NE
Cosmos 2154 Rocket 4.3 20:21:41 10° SSW 20:28:00 71° WNW 20:34:23 10° N
ISS -1.3 20:24:45 10° SW 20:25:27 15° SW 20:25:27 15° SW
Cosmos 1943 Rocket 2.0 20:22:34 10° SSW 20:28:06 80° ESE 20:33:45 10° NNE
Cosmos 1461 3.1 20:30:30 10° NW 20:34:13 58° WSW 20:34:13 58° WSW
USA 307 3.7 20:34:25 10° W 20:38:30 45° N 20:39:08 42° NNE
EO 1 Delta rocket 4.4 20:36:54 36° SSW 20:38:30 56° W 20:43:24 10° NNW
Cosmos 1025 Rocket 3.2 20:36:34 10° N 20:40:23 65° N 20:40:23 65° N
SPOT 5 3.6 20:43:03 44° ENE 20:43:03 44° ENE 20:47:49 10° N
Meteor 1-12 Rocket 4.4 20:40:16 22° SSW 20:44:21 80° WNW 20:50:24 10° N
Cosmos 1400 Rocket 4.4 20:42:44 11° SW 20:46:20 35° WNW 20:50:07 10° N
USA 281 3.2 20:43:21 10° NNE 20:49:57 82° WNW 20:56:31 10° SSW
CARTOSAT-1 4.3 20:51:06 45° NNE 20:51:06 45° NNE 20:54:16 10° N
Spot 2 Rocket 3.6 20:51:41 62° NE 20:51:41 62° NE 20:56:15 10° N
Cosmos 1674 4.5 20:49:18 10° NNW 20:52:27 27° W 20:52:47 26° W
Meteor 1-24 Rocket 3.7 20:48:01 10° N 20:52:51 61° NE 20:52:51 61° NE
SL-8 Rocket 3.8 20:52:19 63° SSE 20:53:21 79° E 20:59:41 10° NNE
ATLAS CENTAUR R/B 1.9 20:49:03 10° NW 20:53:17 65° W 20:53:17 65° W
USA 306 3.9 20:51:18 10° WNW 20:55:14 42° N 20:55:14 42° N
Meteor 1-15 Rocket 4.0 20:56:17 79° S 20:56:39 89° E 21:02:16 10° NNE
Cosmos 1727 Rocket 4.1 20:50:50 10° N 20:57:06 57° ENE 20:57:07 57° ENE
USA 308 3.9 20:53:29 10° WNW 20:57:22 43° NNW 20:57:22 43° NNW
Inspiration4 4.3 20:59:30 10° WSW 21:01:35 28° WSW 21:01:35 28° WSW
Cosmos 2341 Rocket 4.2 21:03:33 39° SSW 21:06:02 72° WNW 21:12:25 10° N
Cosmos 158 Rocket 4.2 21:05:51 10° NNW 21:10:10 63° NNW 21:10:10 63° NNW
Meteor 2-5 Rocket 3.7 21:07:52 10° NNW 21:13:17 75° W 21:13:17 75° W
SPOT 3 Rocket 4.4 21:16:41 41° WSW 21:17:08 42° W 21:22:02 10° NNW
Resurs 01 Rocket 3.3 21:17:56 26° WSW 21:18:15 26° W 21:22:01 10° NW
SJ 16-02 3.6 21:27:03 19° NNE 21:27:03 19° NNE 21:28:22 10° NNE
Cosmos 1833 4.4 21:21:18 10° NNW 21:26:13 67° NW 21:26:13 67° NW
Cosmos 2297 Rocket 3.9 21:23:58 10° N 21:28:14 21° NE 21:28:14 21° NE
Cosmos 2218 Rocket 4.0 21:29:22 68° WSW 21:29:43 70° W 21:35:55 10° N
ARIANE 5 R/B 4.1 21:32:27 34° NNW 21:32:27 34° NNW 21:34:59 10° NNW
Cosmos 2366 rocket 4.1 21:31:14 68° W 21:31:31 69° WNW 21:37:40 10° N
Terra 3.1 21:35:10 38° N 21:35:10 38° N 21:38:06 10° NNW
ERS-1 Rocket 3.8 21:39:20 47° NW 21:39:20 47° NW 21:43:00 10° NNW
Cosmos 2227 Rocket 4.0 21:44:45 10° N 21:48:50 22° NE 21:48:50 22° NE
Cosmos 2369 Rocket 2.9 21:54:02 49° NW 21:54:02 49° NW 21:58:58 10° NNE
Lacrosse 5 rocket 4.2 22:02:47 10° WNW 22:03:42 15° WNW 22:03:42 15° WNW
Cosmos 1943 Rocket 4.3 22:08:05 10° W 22:12:32 24° NW 22:17:02 10° N
CENTAUR R/B 4.0 22:53:55 31° NE 22:53:55 31° NE 22:57:32 10° NE
SJ 16-02 4.4 23:04:00 12° NW 23:04:00 12° NW 23:05:14 10° NNW
Cosmos 2297 Rocket 3.9 23:07:26 10° NNW 23:10:02 28° NNW 23:10:02 28° NNW
Cosmos 2227 Rocket 4.1 23:28:17 10° NNW 23:30:38 26° NNW 23:30:38 26° NNW
